DK8PN Weather Reports


time (UTC)temp
C
wind
direction
speed
KPH
gust
KPH
rain 1hr
cm
rain 24hr
cm
rain mn
cm
humidity
%
barometer
mb
20260504180030 18 290 1.6 16.1 0.00 0.00 0.00 56 1010.1
20260504174529 18 300 0.0 11.3 0.00 0.00 0.00 55 1009.8
20260504173036 19 274 0.0 8.0 0.00 0.00 0.00 54 1009.7
20260504171528 19 294 0.0 6.4 0.00 0.00 0.00 53 1009.4
20260504110118 21 272 0.0 14.5 0.00 0.00 0.00 46 1011.2
20260504081537 18 262 0.0 0.0 0.00 0.00 0.00 55 1012.6
20260504050011 9 262 0.0 0.0 0.00 0.00 0.00 88 1012.6
20260504044521 8 262 0.0 0.0 0.00 0.00 0.00 89 1012.6
20260504043006 8 262 0.0 0.0 0.00 0.00 0.00 88 1012.5
20260504041503 8 262 0.0 0.0 0.00 0.00 0.00 88 1012.4
20260504040002 9 262 0.0 0.0 0.00 0.00 0.00 89 1012.4
20260504034502 8 262 0.0 0.0 0.00 0.00 0.00 88 1012.4
20260504033115 9 262 0.0 0.0 0.00 0.00 0.00 89 1012.5
20260504031559 9 262 0.0 0.0 0.00 0.00 0.00 88 1012.6
20260504030057 9 262 0.0 0.0 0.00 0.00 0.00 88 1012.4
20260504024604 10 262 0.0 0.0 0.00 0.00 0.00 85 1012.5
20260504023052 10 262 0.0 0.0 0.00 0.00 0.00 84 1012.5
20260504021549 11 262 0.0 0.0 0.00 0.00 0.00 83 1012.5
20260504020046 11 262 0.0 0.0 0.00 0.00 0.00 82 1012.4
20260504014547 12 262 0.0 0.0 0.00 0.00 0.00 80 1012.4
20260504013048 12 262 0.0 0.0 0.00 0.00 0.00 80 1012.3
20260504011540 12 262 0.0 0.0 0.00 0.00 0.00 79 1012.2
20260504010048 12 262 0.0 0.0 0.00 0.00 0.00 76 1012.3
20260504004538 13 262 0.0 0.0 0.00 0.00 0.00 74 1012.3
20260504003038 13 262 0.0 0.0 0.00 0.00 0.00 73 1012.4
20260504001541 13 262 0.0 0.0 0.00 0.00 0.00 73 1012.5
20260504000039 12 262 0.0 0.0 0.00 0.00 0.00 76 1012.5
20260503234534 12 262 0.0 0.0 0.00 0.00 0.00 77 1012.7
20260503233030 12 262 0.0 0.0 0.00 0.00 0.00 75 1012.9
20260503231529 13 262 0.0 0.0 0.00 0.00 0.00 74 1012.9
20260503230028 13 262 0.0 0.0 0.00 0.00 0.00 73 1012.9
20260503224527 13 262 0.0 0.0 0.00 0.00 0.00 74 1013.1
20260503223026 13 262 0.0 0.0 0.00 0.00 0.00 72 1013.1
20260503221529 14 262 0.0 0.0 0.00 0.00 0.00 68 1013.0
20260503220018 14 262 0.0 0.0 0.00 0.00 0.00 66 1012.9
20260503214516 14 262 0.0 0.0 0.00 0.00 0.00 64 1012.8
20260503213027 15 262 0.0 0.0 0.00 0.00 0.00 61 1012.7
20260503211518 15 264 0.0 0.0 0.00 0.00 0.00 58 1012.7
20260503210014 15 264 0.0 0.0 0.00 0.00 0.00 58 1012.7
20260503204514 16 264 0.0 0.0 0.00 0.00 0.00 51 1012.7
20260503203015 16 264 0.0 0.0 0.00 0.00 0.00 51 1012.6
20260503201525 16 294 0.0 0.0 0.00 0.00 0.00 49 1012.6
20260503200012 16 279 0.0 6.4 0.00 0.00 0.00 48 1012.4
20260503194510 17 307 0.0 3.2 0.00 0.00 0.00 48 1012.2
20260503193012 17 294 0.0 4.8 0.00 0.00 0.00 47 1012.0
20260503191509 17 325 0.0 3.2 0.00 0.00 0.00 47 1011.8
20260503190017 17 288 0.0 6.4 0.00 0.00 0.00 46 1011.9
20260503184508 18 293 1.6 6.4 0.00 0.00 0.00 45 1011.8
20260503183014 18 280 3.2 19.3 0.00 0.00 0.00 44 1011.4
20260503181519 18 296 9.7 17.7 0.00 0.00 0.00 48 1011.2